Regional Weather Roundup
Issued by NWS

Home | Current Version | Previous Version | Graphics & Text | Print | Product List | Glossary On
Versions: 1 2 3 4 5 6 7 8 9 10 11 12 13 14 15 16 17 18 19 20 21 22 23 24 25 26 27 28 29 30 31 32 33 34 35 36 37 38 39 40 41 42 43 44 45 46 47 48 49 50
000
ASUS43 KLOT 070321
RWRIL

ILLINOIS REGIONAL WEATHER ROUNDUP
NATIONAL WEATHER SERVICE CHICAGO/ROMEOVILLE IL
1000 PM CDT MON JUL 06 2015

NOTE: "FAIR" INDICATES FEW OR NO CLOUDS BELOW 12,000 FEET WITH NO
SIGNIFICANT WEATHER AND/OR OBSTRUCTIONS TO VISIBILITY.

* THESE STATIONS ARE NOT UNDER NWS QUALITY CONTROL. THEY ALSO MAY NOT
  REPORT WEATHER SUCH AS PRECIPITATION OR FOG.

ILZ001-002-007-009-015-016-024-070400-
NORTHWEST ILLINOIS

CITY           SKY/WX    TMP DP  RH WIND       PRES   REMARKS
MOLINE         HVY RAIN  72  69  90 W7G22     29.88R FOG
STERLING*      CLOUDY    72  70  94 W9        29.88R
SAVANNA*       HVY RAIN  72  70  92 SW3       29.87R
$$

ILZ003-004-008-010-011-017-018-070400-
NORTH CENTRAL ILLINOIS

CITY           SKY/WX    TMP DP  RH WIND       PRES   REMARKS
ROCKFORD       LGT RAIN  72  67  84 W13G23    29.88R
FREEPORT*      RAIN      71  70  97 SW6       29.89S
ROCHELLE*      RAIN      70  69  95 W8        29.88S
DE KALB*       CLOUDY    69  67  95 SW5       29.89R
PERU*          RAIN      72  70  93 W10       29.88R
$$

ILZ005-006-012>014-019>023-070400-
NORTHEAST ILLINOIS

CITY           SKY/WX    TMP DP  RH WIND       PRES   REMARKS
CHICAGO-OHARE  CLOUDY    73  68  84 S13       29.84F THUNDER
CHICAGO-MIDWAY LGT RAIN  74  69  85 SW10      29.87F
AURORA         HVY RAIN  73  69  87 NW14      29.88R FOG
LANSING*       CLOUDY    76  68  77 S7        29.88S
JOLIET*        TSTM      71  70  95 E3        29.87F
WAUKEGAN       LGT RAIN  73  69  87 S16       29.84R
DUPAGE AIRPORT LGT RAIN  71  68  90 SW13G20   29.88R
KANKAKEE*      CLOUDY    78  73  83 S10G17    29.89F HX  81
WHEELING       LGT RAIN  73  69  87 S7        29.86F
MORRIS*        RAIN      74  72  94 W13G20    29.86S
ROMEOVILLE*    RAIN      71  68  91 S6        29.87F
NORTHERLY ISL    N/A     73  68  84 SW16        N/A
$$

LMZ740>746-070400-
SOUTHERN LAKE MICHIGAN

STATION/POSITION SKY/WX   TEMP    WIND        PRES    VSBY  WAVE
                          AIR SEA DIR/SP/G                  HT/PER
                          (F)     (DEG/KT/KT) (MB)    (MI)  (FT/S)
HARRISON CRIB              72     240/ 20/ 24   N/A
BURNHAM HARBOR             72     230/  5/ 17   N/A
CALUMET HARBOR             74     260/  5/ 11   N/A
BURNS HARBOR               74     190/ 11/ 15 1011.9R
MICHIGAN CITY              76     160/ 12/ 16   N/A
MICHIGAN CITY 6N           73 68  190/ 10/ 12   N/A           1
ST. JOSEPH                 72 67  230/ 10/ 12   N/A           2/ 2
$$

ILZ025>027-034>036-040-047-049-050-058-095>099-070400-
WEST-CENTRAL ILLINOIS

CITY           SKY/WX    TMP DP  RH WIND       PRES   REMARKS
QUINCY         LGT RAIN  79  75  87 S5        29.87R FOG     HX  83
GALESBURG*     RAIN      71  69  95 W6        29.91S
MACOMB*        RAIN      71  70  98 NW9       29.92F
JACKSONVILLE*  CLOUDY    80  73  79 S9        29.88S HX  85
PITTSFIELD*    CLOUDY    79  74  86 S3        29.89S HX  82
$$

ILZ028>032-037-038-041>044-048-051>054-059>061-070400-
CENTRAL ILLINOIS

CITY           SKY/WX    TMP DP  RH WIND       PRES   REMARKS
PONTIAC        CLOUDY    79  74  84 S16       29.89F HX  82
BLOOMINGTON    CLOUDY    76  73  90 S12       29.91S
DECATUR        CLOUDY    77  71  82 S9        29.92S
PEORIA         LGT RAIN  76  72  87 NW8       29.88R
LACON*         HVY RAIN  72  70  93 NW6       29.88R
LINCOLN*       CLOUDY    78  73  83 S7        29.89S HX  81
SPRINGFIELD    CLOUDY    81  72  74 S15G22    29.90S HX  85
TAYLORVILLE    CLOUDY    73  70  88 S8        29.92S
$$

ILZ033-039-045-046-055>057-062-063-070400-
EAST-CENTRAL ILLINOIS

CITY           SKY/WX    TMP DP  RH WIND       PRES   REMARKS
CHAMPAIGN      CLOUDY    73  68  84 S6        29.93S
DANVILLE*      CLOUDY    73  67  82 S5        29.92R
RANTOUL*       CLOUDY    76  69  79 S3        29.93R
MATTOON        CLOUDY    76  72  87 S7        29.94R
PARIS*         CLOUDY    72  70  93 S3        29.96S
$$

ILZ079-100>102-070400-
SOUTHWEST ILLINOIS

CITY           SKY/WX    TMP DP  RH WIND       PRES   REMARKS
ALTON          CLOUDY    79 N/A N/A SE7       29.92S
BELLEVILLE     MOCLDY    79  77  94 SE9       29.91F HX  82
CAHOKIA*       CLOUDY    80  74  81 S7        29.92R HX  85
SPARTA*        MOCLDY    79  74  86 S7        29.96R HX  82
$$

ILZ064>066-069>071-074>076-080>082-084>086-088>090-092>094-070400-
SOUTH-CENTRAL ILLINOIS

CITY           SKY/WX    TMP DP  RH WIND       PRES   REMARKS
CARBONDALE     PTCLDY    79  73  82 S9        29.96S HX  82
CAIRO*         CLEAR     79  73  82 S8        29.99R HX  83
EFFINGHAM*     CLOUDY    77  72  85 SE5       29.97S
MARION         PTCLDY    79  73  83 S8        29.98R HX  82
MT. VERNON     MOCLDY    79  72  78 S6        29.97S HX  82
CENTRALIA*     MOCLDY    78  72  82 S8        29.95S
SALEM*         MOCLDY    80  74  80 S6        29.96S HX  85
$$

ILZ067-068-072-073-078-083-087-091-070400-
SOUTHEAST ILLINOIS

CITY           SKY/WX    TMP DP  RH WIND       PRES   REMARKS
LAWRENCEVILLE  PTCLDY    76  73  91 S6        29.98R
FLORA*         PTCLDY    78  73  84 S6        29.97R HX  81
FAIRFIELD*     PTCLDY    78  75  89 S5        29.95S HX  81
HARRISBURG*    CLEAR     78  75  90 S6        29.99S HX  82
ROBINSON*      MOCLDY    78  73  85 S7        29.96F HX  80
CARMI*         PTCLDY    77  70  79 S5        29.97S
$$

ABBREVIATIONS USED IN REMARKS
   TC - TEMPERATURE IN CELSIUS
  WCI - WIND CHILL INDEX
   HX - HEAT INDEX
  VSB - VISIBILITY
$$




USA.gov is the U.S. government's official web portal to all federal, state and local government web resources and services.